Weather History for KUAO - June, 2013

Change the Weather History Date:

Saturday, June 29, 2013

  Actual Average Record
Temperature  
Mean Temperature 74 °F -  
Max Temperature 88 °F - - ()
Min Temperature 61 °F - - ()
Degree Days  
Heating Degree Days 0    
Month to date heating degree days 80  
Since 1 June heating degree days 80  
Since 1 July heating degree days 4347  
Cooling Degree Days 10    
Month to date cooling degree days 40  
Year to date cooling degree days 55  
Since 1 June cooling degree days 40  
Growing Degree Days 24 (Base 50)    
Moisture  
Dew Point 59 °F    
Average Humidity 64    
Maximum Humidity 90    
Minimum Humidity 37    
Precipitation  
Precipitation 0.00 in - - ()
Month to date precipitation 0.99  
Year to date precipitation 12.96  
Sea Level Pressure  
Sea Level Pressure 30.06 in    
Wind  
Wind Speed 2 mph (North)    
Max Wind Speed 9 mph    
Max Gust Speed 12 mph    
Visibility 10 miles    
Events      
T = Trace of Precipitation, MM = Missing Value Source: NWS Daily Summary

Daily Weather History Graph

Daily Weather History Graph

Search for Another Location

Airport or City:

Trip Planner

Search our weather history database for the weather conditions in past years. The results will help you decide how hot, cold, wet, or windy it might be!

Date:

Astronomy

Jun. 29, 2013 Rise Set
Actual Time 5:26 AM PDT 9:02 PM PDT
Civil Twilight 4:48 AM PDT 9:40 PM PDT
Nautical Twilight 3:58 AM PDT 10:29 PM PDT
Astronomical Twilight 2:52 AM PDT 11:36 PM PDT
Moon 12:14 AM PDT (6/29) 1:05 PM PDT (6/29)
Length of Visible Light 16h 51m
Length of Day
15h 36m
Waning Gibbous, 54% of the Moon is Illuminated
Jun 29
Waning Gibbous
Jun 29
Last Quarter
Jul 8
New
Jul 15
First Quarter
Jul 22
Full

Hourly Weather History & Observations

Time (PDT) Temp. Heat Index Dew Point Humidity Pressure Visibility Wind Dir Wind Speed Gust Speed Precip Events Conditions
12:53 AM 66.0 °F - 60.1 °F 81% 30.10 in 10.0 mi Calm Calm - N/A   Clear
1:53 AM 64.9 °F - 59.0 °F 81% 30.10 in 10.0 mi Calm Calm - N/A   Clear
2:53 AM 64.9 °F - 57.9 °F 78% 30.10 in 10.0 mi SE 3.5 mph - N/A   Clear
3:53 AM 63.0 °F - 57.9 °F 84% 30.11 in 10.0 mi Calm Calm - N/A   Clear
4:53 AM 62.1 °F - 57.9 °F 86% 30.11 in 10.0 mi Calm Calm - N/A   Clear
5:53 AM 61.0 °F - 57.9 °F 90% 30.11 in 10.0 mi Calm Calm - N/A   Partly Cloudy
6:53 AM 63.0 °F - 57.9 °F 84% 30.12 in 10.0 mi Calm Calm - N/A   Mostly Cloudy
7:53 AM 66.9 °F - 57.0 °F 70% 30.12 in 10.0 mi Calm Calm - N/A   Mostly Cloudy
8:53 AM 70.0 °F - 57.9 °F 65% 30.11 in 10.0 mi Calm Calm - N/A   Clear
9:53 AM 72.0 °F - 57.9 °F 61% 30.11 in 10.0 mi Calm Calm - N/A   Clear
10:53 AM 75.0 °F - 57.9 °F 55% 30.10 in 10.0 mi Calm Calm - N/A   Clear
11:53 AM 78.1 °F - 59.0 °F 52% 30.09 in 10.0 mi Calm Calm - N/A   Clear
12:53 PM 81.0 °F 81.1 °F 57.9 °F 45% 30.08 in 10.0 mi WSW 4.6 mph - N/A   Clear
1:53 PM 84.0 °F 83.8 °F 59.0 °F 43% 30.06 in 10.0 mi Variable 4.6 mph - N/A   Clear
2:53 PM 84.0 °F 83.5 °F 57.9 °F 41% 30.04 in 10.0 mi WNW 3.5 mph - N/A   Clear
3:53 PM 86.0 °F 85.0 °F 57.9 °F 38% 30.03 in 10.0 mi North 5.8 mph - N/A   Clear
4:53 PM 87.1 °F 86.5 °F 59.0 °F 39% 30.01 in 10.0 mi North 4.6 mph - N/A   Clear
5:53 PM 87.1 °F 86.5 °F 59.0 °F 39% 29.99 in 10.0 mi Variable 6.9 mph - N/A   Clear
6:53 PM 87.1 °F 86.5 °F 59.0 °F 39% 29.98 in 10.0 mi NW 4.6 mph - N/A   Clear
7:53 PM 84.9 °F 84.8 °F 60.1 °F 43% 29.97 in 10.0 mi Calm Calm - N/A   Clear
8:53 PM 79.0 °F - 62.1 °F 56% 29.97 in 10.0 mi North 5.8 mph - N/A   Clear
9:53 PM 75.0 °F - 60.1 °F 60% 29.98 in 10.0 mi NNE 5.8 mph - N/A   Clear
10:53 PM 73.9 °F - 60.1 °F 62% 29.98 in 10.0 mi Calm Calm - N/A   Clear
11:53 PM 75.0 °F - 59.0 °F 57% 29.98 in 10.0 mi East 3.5 mph - N/A   Clear